Theta_e
317 317 317 318 318 319 319 319 320 320 321 321 321 322 322 322 319 313 304 309 313 320 317 307 303 301 301 300 305 300 289 287 288 290 294 298 297 301 302 302 303 307 309 318 330
314 315 316 316 316 317 318 318 318 318 319 321 321 321 321 322 310 307 314 319 319 318 306 302 299 300 296 298 300 295 287 290 294 294 294 297 297 299 298 299 301 306 312 327 329
313 313 314 314 315 316 316 317 316 317 318 319 321 321 321 319 305 303 317 314 316 315 307 303 302 299 295 297 297 294 291 294 295 297 297 297 296 298 296 295 301 303 308 321 324
310 311 311 312 313 314 314 315 316 317 317 319 320 320 321 312 293 303 315 315 316 308 304 302 299 295 293 294 298 292 297 296 299 299 299 296 297 296 296 298 301 299 307 313 321
309 309 309 310 310 311 312 313 313 316 318 318 319 320 309 301 301 303 313 312 306 305 301 300 297 296 293 294 296 294 295 297 298 297 295 297 295 294 295 301 300 301 305 307 313
307 307 307 308 309 310 311 312 313 315 317 318 318 319 305 296 303 302 302 304 303 301 299 300 299 299 294 294 293 295 295 294 296 296 296 295 293 294 298 301 300 300 300 300 302
306 306 307 307 308 308 311 313 315 316 317 318 317 311 300 299 301 300 302 302 302 302 298 301 301 298 297 294 296 295 291 292 293 295 293 295 290 291 298 299 299 298 298 298 299
306 306 306 307 307 309 312 315 316 317 317 314 314 304 296 303 300 301 301 300 303 304 302 302 302 298 295 295 294 291 288 285 292 294 294 293 287 295 296 296 294 294 294 296 296
305 306 306 306 308 310 313 315 317 318 313 313 304 298 295 305 299 300 299 298 301 301 301 301 299 294 293 288 285 287 283 286 291 294 290 289 287 293 294 295 293 293 292 293 294
304 305 305 306 308 310 313 315 315 312 308 306 303 294 299 299 298 298 298 299 298 298 297 295 292 287 286 284 279 283 283 285 286 290 288 286 286 291 293 293 291 291 292 292 294
304 304 304 305 307 310 306 301 295 293 295 292 293 295 298 299 299 297 298 297 296 294 286 291 284 281 285 288 289 289 286 286 289 289 288 287 287 290 292 290 290 291 292 293 294
303 303 304 305 307 309 302 296 299 299 289 295 295 296 300 302 296 297 298 290 290 285 288 286 282 287 289 289 288 287 284 283 289 289 287 287 287 290 292 291 292 292 291 293 294
303 304 305 307 309 299 296 295 303 305 288 291 298 294 295 297 295 293 294 292 287 285 286 283 287 292 288 287 287 286 284 284 285 288 288 285 286 287 291 294 295 294 295 295 296
302 303 306 307 297 296 293 299 301 303 281 287 291 294 295 296 291 295 295 291 289 286 287 287 290 289 287 287 288 283 289 289 288 284 280 286 281 286 290 291 293 295 294 296 294
302 303 305 305 294 292 296 300 302 299 261 287 290 297 295 292 293 293 296 292 285 287 288 286 288 286 287 287 290 287 289 287 287 281 278 279 276 282 290 291 291 292 294 292 292
301 302 304 298 294 294 296 297 296 271 261 284 290 287 285 288 290 292 291 293 293 288 289 287 292 289 287 287 289 290 286 285 283 279 269 282 281 283 286 289 291 292 293 292 291
302 302 301 298 289 296 296 293 269 264 280 278 281 283 282 281 286 288 286 284 283 279 281 286 287 290 289 285 288 289 285 278 275 275 274 282 278 285 289 290 292 293 292 290 291
301 301 298 297 295 295 293 276 263 268 275 283 281 281 278 281 281 285 283 280 286 286 282 277 275 288 290 286 284 285 285 279 273 274 275 279 278 284 289 292 291 293 292 290 289
299 291 293 293 295 294 283 269 270 277 279 278 279 276 275 279 278 278 278 279 285 288 281 280 279 288 289 287 288 284 280 286 280 279 277 277 282 288 288 287 286 286 288 288 289
288 287 289 295 294 290 276 271 275 281 281 280 274 277 272 274 274 274 274 281 282 287 289 284 277 285 286 288 289 286 289 279 280 274 273 276 277 281 284 285 285 285 285 287 288
285 280 289 294 290 281 269 266 279 282 282 278 274 274 275 274 274 272 274 281 284 283 285 284 281 278 282 280 281 281 280 283 284 281 277 277 276 284 284 285 285 285 286 287 288
282 271 289 291 275 275 265 273 280 278 281 280 278 276 275 274 273 273 273 277 283 283 279 283 281 275 278 285 285 284 282 283 277 277 280 279 280 287 286 286 287 285 287 287 288
277 275 287 284 265 262 271 276 278 276 276 276 275 277 276 274 270 274 274 281 282 278 279 282 277 270 270 279 284 282 283 283 283 281 277 276 279 288 288 287 287 285 286 287 287
277 269 274 278 277 274 266 268 269 279 277 277 276 278 274 272 275 271 272 279 280 280 284 282 277 275 269 270 275 277 281 282 281 276 277 278 281 285 288 289 290 287 285 286 287
276 271 275 263 268 274 274 272 269 268 277 276 275 275 273 264 271 267 272 275 278 282 279 278 270 273 272 274 276 276 275 278 277 279 277 280 280 283 286 287 289 290 288 286 287
272 272 276 271 277 275 274 272 273 274 274 273 273 275 275 264 271 268 273 273 273 276 275 277 268 271 269 274 275 272 274 276 279 279 279 279 280 287 288 290 289 290 288 286 287
282 283 280 276 273 269 271 274 275 276 276 277 275 274 273 275 277 278 278 278 277 274 272 271 268 263 265 271 271 266 271 276 277 279 280 276 281 286 286 287 288 287 287 287 287
Wind_Speed
21 21 20 19 19 19 18 19 19 18 18 18 17 17 17 17 16 2 5 1 2 2 5 5 2 4 3 2 1 1 3 3 4 3 4 3 3 3 4 4 2 3 5 7 11
21 22 22 22 21 20 19 19 19 18 18 18 18 19 17 17 5 6 2 3 2 4 3 3 2 3 3 3 2 3 4 6 2 1 1 3 4 4 3 3 2 5 6 8 9
23 22 23 23 23 23 24 21 19 18 17 16 16 17 16 11 4 1 2 3 2 2 3 5 4 3 3 3 4 5 5 1 2 1 3 2 2 0 4 3 5 10 9 8 5
23 24 23 23 23 25 24 25 24 20 18 16 15 16 15 2 4 2 0 1 3 3 4 4 4 5 4 6 6 3 7 4 3 1 2 2 3 3 4 6 8 5 11 9 9
25 25 25 24 25 24 25 25 24 23 20 17 14 11 5 3 7 2 2 1 2 1 3 2 2 3 4 2 3 4 3 4 1 4 2 4 4 4 7 8 4 6 10 10 9
24 26 26 26 26 26 26 26 24 22 21 19 12 4 2 5 2 5 2 1 2 1 2 2 2 2 5 3 4 0 4 5 5 4 3 4 2 4 7 12 12 7 10 9 9
24 25 26 27 28 28 27 26 24 21 21 16 7 2 2 10 3 2 3 0 1 1 2 0 1 2 4 4 2 2 5 6 8 7 5 5 6 13 15 6 10 10 9 9 10
26 26 26 27 29 29 28 27 23 18 11 7 3 2 7 2 1 1 1 2 2 3 2 2 1 2 2 4 3 1 2 3 2 9 5 7 9 5 9 10 8 7 7 8 9
26 26 28 29 27 27 29 28 21 8 4 5 1 2 6 1 3 2 1 4 2 1 2 2 1 3 2 2 3 3 5 7 4 7 6 7 6 3 3 9 8 8 8 8 8
27 28 28 29 27 25 28 21 13 5 4 4 3 2 2 5 1 1 1 2 2 1 1 2 2 3 1 5 9 8 7 5 6 7 3 5 12 9 4 5 9 9 9 9 9
28 30 30 28 24 23 17 6 10 8 9 4 15 9 12 2 1 2 2 1 2 1 4 4 3 8 12 14 5 6 5 5 2 3 4 9 9 12 9 7 9 9 9 10 11
29 30 31 27 23 14 8 7 5 6 14 13 15 10 9 7 4 4 1 2 3 6 3 3 10 10 8 9 11 12 9 9 6 4 4 5 12 10 9 9 14 14 12 13 7
30 30 29 27 15 5 9 10 10 5 6 9 4 5 6 7 5 7 5 5 4 4 6 8 7 1 8 10 7 10 15 5 8 3 4 3 13 8 10 17 13 15 13 15 16
30 29 27 26 9 8 3 14 9 6 4 7 7 5 5 5 3 2 6 4 6 6 7 11 11 18 12 9 9 13 6 8 7 4 6 2 13 6 7 11 11 18 14 16 11
29 25 24 17 5 4 10 14 10 1 8 10 5 2 7 4 6 2 2 2 4 11 7 7 9 5 5 12 9 9 3 4 6 5 5 4 2 7 9 16 10 11 15 11 10
28 24 20 6 3 5 14 13 2 10 4 7 5 13 15 6 6 3 1 1 4 5 7 17 13 5 4 3 4 5 5 6 4 4 0 14 10 12 9 8 7 6 12 15 12
28 22 8 3 8 15 11 4 9 8 7 9 8 13 17 9 8 11 6 5 2 6 4 5 7 5 7 6 2 4 5 2 3 3 10 8 7 24 5 6 7 10 10 10 10
27 19 6 1 9 10 5 8 11 5 3 6 12 13 4 15 10 13 9 7 8 5 5 4 8 3 3 11 7 12 11 7 8 7 6 1 11 15 4 12 8 9 7 10 10
22 5 2 7 10 4 6 9 6 2 7 9 10 5 7 12 9 11 9 7 5 9 7 5 6 3 6 6 3 2 8 6 5 1 1 5 7 10 6 5 0 4 7 10 9
5 4 4 13 10 5 7 4 3 7 7 5 3 6 9 11 9 10 4 6 11 14 13 5 8 6 2 3 5 8 5 2 3 5 7 5 5 7 6 6 2 5 7 7 7
4 5 4 13 5 7 5 3 3 9 10 6 4 6 5 6 11 4 7 10 12 13 12 11 6 5 4 5 5 4 4 5 5 4 3 2 5 4 6 7 7 7 6 8 8
3 4 6 7 7 3 3 2 7 5 6 4 4 5 2 13 6 7 5 8 16 18 11 6 5 9 14 7 2 4 10 11 4 3 3 3 3 5 6 8 2 4 7 6 8
3 2 6 6 5 4 5 4 2 5 5 3 3 2 5 6 7 5 10 10 13 16 11 8 3 7 13 5 2 3 3 5 3 2 5 3 2 3 9 13 10 6 5 7 8
3 4 6 6 2 3 1 4 5 3 5 2 5 4 6 7 5 8 11 6 14 13 13 13 7 6 4 13 14 13 5 4 4 4 3 9 12 11 14 13 15 7 2 4 9
3 3 5 3 5 1 2 3 3 4 4 1 2 5 7 4 12 8 13 17 10 6 6 4 6 12 20 19 7 10 14 12 11 11 8 4 8 17 12 10 14 9 2 4 4
2 3 4 3 3 3 4 3 8 7 2 5 7 8 6 4 10 15 15 15 11 14 10 4 7 14 17 11 13 21 22 14 14 15 13 16 23 15 12 5 8 9 9 3 5
2 3 2 4 2 3 5 6 5 6 7 6 7 5 10 15 12 14 14 16 17 17 19 5 3 1 11 12 10 9 6 3 6 10 13 14 19 12 7 13 11 5 8 8 7
Wind_Direction
15 13 11 7 360 354 349 345 344 340 337 332 331 328 326 327 318 238 231 173 153 346 337 292 272 256 269 262 294 64 62 246 254 246 169 272 96 13 162 106 35 31 137 172 148
19 11 4 359 355 350 346 342 337 335 333 329 326 326 327 331 304 260 61 71 56 27 322 277 237 179 306 227 237 118 147 227 219 1 42 112 94 178 122 156 131 60 42 113 135
15 11 3 356 350 346 340 336 333 329 325 323 323 322 319 324 297 303 27 19 0 346 252 294 289 194 224 181 218 205 208 232 351 134 60 43 57 304 139 214 207 175 169 155 150
10 3 359 354 348 342 338 333 327 323 322 321 322 320 315 234 317 130 314 347 320 327 298 272 263 165 231 208 214 230 236 242 256 44 43 83 329 328 192 208 157 120 185 159 166
5 2 356 350 345 339 332 327 323 320 319 319 318 316 351 322 257 180 273 279 237 218 243 275 243 238 216 277 210 218 266 293 135 165 228 327 245 237 256 252 217 141 136 174 177
5 357 353 348 343 336 329 322 318 318 315 312 309 309 125 260 113 141 149 352 323 276 290 252 292 311 287 267 200 312 309 277 279 232 245 210 253 116 259 227 242 169 162 177 192
5 359 352 348 342 335 328 321 318 313 313 308 293 245 250 242 89 127 184 253 229 257 256 0 321 318 337 275 2 343 315 294 229 203 225 149 276 228 234 210 219 204 195 208 209
0 356 353 348 342 335 328 317 312 309 309 294 278 262 241 311 351 31 278 247 232 253 238 295 242 246 250 317 320 242 227 286 242 161 201 143 264 233 231 193 217 215 200 199 208
359 353 351 349 343 336 327 319 314 312 289 264 278 208 276 137 86 316 359 298 177 208 278 240 248 197 112 153 333 259 239 215 277 180 134 177 257 242 136 179 202 219 220 213 221
357 352 350 349 344 339 329 324 337 354 333 223 251 318 290 330 307 335 298 285 284 171 322 210 212 181 199 135 215 206 227 251 207 215 178 183 254 267 278 197 221 230 225 213 211
356 352 349 347 344 343 345 4 15 348 40 292 290 281 302 357 25 343 329 346 282 189 228 224 187 211 202 210 208 204 215 230 269 246 162 225 249 253 253 218 236 233 221 211 212
356 352 344 346 337 7 20 58 45 285 309 296 270 270 286 289 308 328 53 257 199 217 209 305 247 239 231 226 229 245 255 255 271 191 185 263 256 248 247 229 217 219 222 221 202
356 351 346 341 328 50 73 41 330 326 304 305 343 33 315 2 339 345 7 311 254 259 226 208 230 51 220 249 232 229 230 212 223 201 251 356 273 240 241 236 229 219 216 215 207
357 352 348 343 41 333 38 338 321 314 20 314 343 357 343 319 358 314 3 5 315 284 249 248 241 250 257 232 218 254 199 187 206 120 237 169 273 249 228 236 220 225 211 218 193
356 351 348 358 301 29 303 312 307 170 48 306 -0 337 325 33 269 269 207 84 321 308 331 272 356 350 258 239 191 246 197 204 199 161 81 237 346 258 226 237 229 222 217 201 188
351 346 345 352 11 294 310 308 49 44 285 336 37 347 350 327 306 272 240 216 244 252 243 267 281 268 258 326 330 84 27 28 59 104 346 227 180 256 208 209 237 211 214 199 184
346 339 346 12 323 316 315 15 36 93 322 335 346 339 323 316 352 6 319 323 272 318 307 294 246 221 183 251 339 103 102 234 236 228 233 169 178 249 256 265 231 227 222 183 165
342 329 314 25 320 327 358 49 66 240 338 336 345 318 324 28 336 345 356 344 301 239 286 280 325 58 273 230 207 195 187 199 216 195 230 58 208 244 235 246 244 232 195 144 150
340 327 30 316 328 352 59 52 181 356 352 337 336 340 345 9 350 2 327 277 341 21 300 299 252 329 63 347 43 214 236 288 323 174 238 223 276 294 235 249 112 140 135 149 148
325 340 332 328 330 41 67 119 112 34 346 23 351 16 345 338 356 355 293 305 352 14 354 306 289 228 199 135 174 219 327 275 200 228 238 238 260 246 334 282 280 176 157 138 132
35 26 279 333 31 44 95 220 356 12 10 341 351 281 323 6 327 288 290 324 18 333 336 296 245 300 348 215 208 152 245 240 284 249 260 221 260 242 298 308 238 206 174 154 149
11 31 301 353 47 46 67 358 340 351 6 324 335 17 327 331 291 291 260 322 17 343 315 305 296 286 256 242 348 276 220 208 233 238 241 323 261 339 0 350 310 208 162 149 147
356 261 315 57 84 350 318 301 304 351 331 359 295 291 330 335 314 306 345 297 342 334 343 334 304 326 323 353 40 244 295 262 279 267 236 290 219 13 32 23 17 31 154 151 143
50 9 331 29 112 105 55 279 343 276 275 275 291 321 335 313 302 294 303 330 321 308 359 4 320 285 334 316 306 298 305 297 255 263 268 241 261 243 25 15 353 360 50 166 155
37 275 171 304 323 331 304 215 288 322 235 66 289 302 313 306 308 276 296 311 312 307 351 36 283 309 314 310 318 314 328 302 284 294 269 334 305 293 304 319 329 301 91 138 165
101 70 348 242 264 222 260 254 264 269 258 285 272 285 288 218 281 293 301 304 292 302 300 281 274 302 281 299 317 321 303 270 256 258 258 277 284 284 281 198 240 249 282 242 186
279 327 131 255 251 97 223 227 247 301 284 228 266 283 291 291 284 283 282 273 265 269 276 233 238 310 279 290 314 305 255 322 320 289 280 279 279 303 263 231 239 239 240 237 213